Ionia, MI

6:24 PM EST on December 08, 2016 (GMT -0500)
Ionia

Weather History for KY70 - May, 2014

Change the Weather History Date:

Sunday, May 4, 2014

  Actual Average (KGRR) Record (KGRR)
Temperature  
Mean Temperature 48 °F -  
Max Temperature 53 °F 63 °F 88 °F (1949)
Min Temperature 42 °F 40 °F 26 °F (1971)
Degree Days  
Heating Degree Days 18    
Moisture  
Dew Point 32 °F    
Average Humidity 53    
Maximum Humidity 76    
Minimum Humidity 35    
Precipitation  
Precipitation 0.00 in - - ()
Sea Level Pressure  
Sea Level Pressure 29.94 in    
Wind  
Wind Speed 8 mph (NW)    
Max Wind Speed 22 mph    
Max Gust Speed 31 mph    
Visibility 10 miles    
Events      
Averages and records for this station are not official NWS values.
T = Trace of Precipitation, MM = Missing Value Source: NWS Daily Summary

Daily Weather History Graph

Daily Weather History Graph

Search for Another Location

Airport or City:

Trip Planner

Search our weather history database for the weather conditions in past years. The results will help you decide how hot, cold, wet, or windy it might be!

Date:

Astronomy

May. 04, 2014 Rise Set
Actual Time 6:30 AM EDT 8:44 PM EDT
Civil Twilight 5:58 AM EDT 9:15 PM EDT
Nautical Twilight 5:20 AM EDT 9:54 PM EDT
Astronomical Twilight 4:37 AM EDT 10:37 PM EDT
Moon 10:53 AM EDT (5/4) 12:49 AM EDT (5/4)
Length of Visible Light 15h 17m
Length of Day
14h 14m
Waxing Crescent, 27% of the Moon is Illuminated
May 4
Waxing Crescent
May 6
First Quarter
May 14
Full
May 21
Last Quarter
May 28
New

Hourly Weather History & Observations

Time (EDT) Temp. Windchill Dew Point Humidity Pressure Visibility Wind Dir Wind Speed Gust Speed Precip Events Conditions
12:20 AM 48.2 °F - 35.6 °F 62% 29.82 in 10.0 mi West 4.6 mph - N/A   Mostly Cloudy
12:37 AM 46.4 °F 42.9 °F 35.6 °F 66% 29.82 in 10.0 mi WSW 6.9 mph - N/A   Overcast
12:57 AM 46.4 °F 45.2 °F 35.6 °F 66% 29.82 in 10.0 mi WSW 3.5 mph - N/A   Overcast
1:19 AM 46.4 °F 43.5 °F 35.6 °F 66% 29.82 in 10.0 mi West 5.8 mph - N/A   Mostly Cloudy
1:38 AM 44.6 °F 41.4 °F 35.6 °F 71% 29.82 in 10.0 mi West 5.8 mph - N/A   Mostly Cloudy
2:00 AM 44.6 °F 42.2 °F 35.6 °F 71% 29.82 in 10.0 mi West 4.6 mph - N/A   Overcast
2:21 AM 46.4 °F 44.3 °F 35.6 °F 66% 29.82 in 10.0 mi WNW 4.6 mph - N/A   Overcast
2:39 AM 46.4 °F 44.3 °F 37.4 °F 71% 29.83 in 10.0 mi WNW 4.6 mph - N/A   Overcast
3:00 AM 46.4 °F - 35.6 °F 66% 29.82 in 10.0 mi Calm Calm - N/A   Overcast
3:19 AM 46.4 °F 44.3 °F 37.4 °F 71% 29.84 in 10.0 mi WNW 4.6 mph - N/A   Overcast
3:38 AM 46.4 °F - 35.6 °F 66% 29.84 in 10.0 mi Calm Calm - N/A   Overcast
3:57 AM 44.6 °F - 35.6 °F 71% 29.83 in 10.0 mi Calm Calm - N/A   Overcast
4:20 AM 46.4 °F - 35.6 °F 66% 29.83 in 10.0 mi Calm Calm - N/A   Overcast
4:39 AM 44.6 °F - 37.4 °F 76% 29.83 in 10.0 mi Calm Calm - N/A   Overcast
4:58 AM 44.6 °F 41.4 °F 37.4 °F 76% 29.83 in 10.0 mi SSW 5.8 mph - N/A   Overcast
5:19 AM 44.6 °F 40.7 °F 37.4 °F 76% 29.82 in 10.0 mi South 6.9 mph - N/A   Overcast
5:39 AM 44.6 °F 40.7 °F 37.4 °F 76% 29.83 in 10.0 mi SSW 6.9 mph - N/A   Overcast
6:18 AM 44.6 °F 42.2 °F 37.4 °F 76% 29.83 in 10.0 mi SSW 4.6 mph - N/A   Overcast
6:39 AM 44.6 °F 41.4 °F 37.4 °F 76% 29.83 in 10.0 mi SW 5.8 mph - N/A   Overcast
6:58 AM 44.6 °F 40.7 °F 37.4 °F 76% 29.84 in 10.0 mi WSW 6.9 mph - N/A   Overcast
7:18 AM 44.6 °F 38.8 °F 37.4 °F 76% 29.83 in 10.0 mi WSW 11.5 mph - N/A   Overcast
7:43 AM 46.4 °F 40.4 °F 35.6 °F 66% 29.84 in 10.0 mi West 13.8 mph 17.3 mph N/A   Scattered Clouds
8:17 AM 46.4 °F 40.4 °F 35.6 °F 66% 29.86 in 10.0 mi WNW 13.8 mph - N/A   Overcast
8:39 AM 48.2 °F - 33.8 °F 58% 29.87 in 10.0 mi WNW 18.4 mph 28.8 mph N/A   Scattered Clouds
8:58 AM 48.2 °F - 32.0 °F 54% 29.88 in 10.0 mi NW 17.3 mph 24.2 mph N/A   Clear
9:19 AM 48.2 °F - 32.0 °F 54% 29.88 in 10.0 mi NW 19.6 mph 31.1 mph N/A   Clear
9:39 AM 48.2 °F - 33.8 °F 58% 29.89 in 10.0 mi WNW 19.6 mph 29.9 mph N/A   Clear
9:58 AM 50.0 °F - 32.0 °F 50% 29.90 in 10.0 mi NNW 21.9 mph 27.6 mph N/A   Scattered Clouds
10:22 AM 48.2 °F - 30.2 °F 50% 29.92 in 10.0 mi NW 21.9 mph 28.8 mph N/A   Scattered Clouds
10:41 AM 48.2 °F - 28.4 °F 46% 29.93 in 10.0 mi WNW 20.7 mph 28.8 mph N/A   Scattered Clouds
10:57 AM 48.2 °F - 30.2 °F 50% 29.94 in 10.0 mi NW 20.7 mph 26.5 mph N/A   Scattered Clouds
11:21 AM 50.0 °F - 26.6 °F 40% 29.95 in 10.0 mi NW 18.4 mph 27.6 mph N/A   Scattered Clouds
11:38 AM 50.0 °F - 26.6 °F 40% 29.96 in 10.0 mi WNW 19.6 mph 28.8 mph N/A   Scattered Clouds
11:57 AM 50.0 °F - 26.6 °F 40% 29.96 in 10.0 mi NW 17.3 mph 23.0 mph N/A   Scattered Clouds
12:17 PM 50.0 °F - 26.6 °F 40% 29.97 in 10.0 mi NW 12.7 mph 26.5 mph N/A   Clear
12:41 PM 51.8 °F - 26.6 °F 38% 29.97 in 10.0 mi NW 13.8 mph 29.9 mph N/A   Scattered Clouds
12:57 PM 51.8 °F - 28.4 °F 41% 29.98 in 10.0 mi WNW 15.0 mph 25.3 mph N/A   Mostly Cloudy
1:17 PM 51.8 °F - 26.6 °F 38% 29.98 in 10.0 mi WNW 13.8 mph 25.3 mph N/A   Scattered Clouds
1:37 PM 51.8 °F - 28.4 °F 41% 29.98 in 10.0 mi WNW 12.7 mph 24.2 mph N/A   Scattered Clouds
1:58 PM 51.8 °F - 26.6 °F 38% 29.98 in 10.0 mi NW 16.1 mph 25.3 mph N/A   Scattered Clouds
2:17 PM 51.8 °F - 28.4 °F 41% 29.98 in 10.0 mi NW 11.5 mph 24.2 mph N/A   Scattered Clouds
2:37 PM 51.8 °F - 30.2 °F 44% 29.98 in 10.0 mi WNW 16.1 mph 20.7 mph N/A   Scattered Clouds
2:57 PM 53.6 °F - 30.2 °F 41% 29.99 in 10.0 mi NW 12.7 mph 25.3 mph N/A   Mostly Cloudy
3:17 PM 53.6 °F - 30.2 °F 41% 29.99 in 10.0 mi NW 11.5 mph 18.4 mph N/A   Mostly Cloudy
3:37 PM 53.6 °F - 30.2 °F 41% 30.00 in 10.0 mi North 15.0 mph 20.7 mph N/A   Mostly Cloudy
3:57 PM 53.6 °F - 30.2 °F 41% 30.00 in 10.0 mi NNW 11.5 mph 17.3 mph N/A   Scattered Clouds
4:18 PM 53.6 °F - 28.4 °F 38% 30.00 in 10.0 mi NNW 10.4 mph 17.3 mph N/A   Scattered Clouds
4:39 PM 53.6 °F - 28.4 °F 38% 30.00 in 10.0 mi North 12.7 mph 18.4 mph N/A   Clear
4:58 PM 53.6 °F - 28.4 °F 38% 30.00 in 10.0 mi NNW 9.2 mph 16.1 mph N/A   Clear
5:17 PM 53.6 °F - 28.4 °F 38% 30.00 in 10.0 mi NW 10.4 mph 17.3 mph N/A   Clear
5:41 PM 53.6 °F - 28.4 °F 38% 30.00 in 10.0 mi North 10.4 mph - N/A   Clear
5:58 PM 53.6 °F - 28.4 °F 38% 30.00 in 10.0 mi NNW 12.7 mph - N/A   Clear
6:18 PM 53.6 °F - 28.4 °F 38% 30.01 in 10.0 mi North 8.1 mph - N/A   Clear
6:38 PM 53.6 °F - 26.6 °F 35% 30.02 in 10.0 mi NNW 6.9 mph 21.9 mph N/A   Clear
6:57 PM 53.6 °F - 28.4 °F 38% 30.01 in 10.0 mi NNW 6.9 mph - N/A   Clear
7:17 PM 53.6 °F - 28.4 °F 38% 30.01 in 10.0 mi NW 11.5 mph - N/A   Clear
7:38 PM 51.8 °F - 26.6 °F 38% 30.02 in 10.0 mi North 8.1 mph - N/A   Clear
7:57 PM 51.8 °F - 28.4 °F 41% 30.03 in 10.0 mi NNW 6.9 mph - N/A   Clear
8:17 PM 51.8 °F - 26.6 °F 38% 30.03 in 10.0 mi NNW 4.6 mph - N/A   Clear
8:37 PM 50.0 °F - 28.4 °F 43% 30.04 in 10.0 mi North 5.8 mph - N/A   Clear
8:57 PM 50.0 °F - 28.4 °F 43% 30.04 in 10.0 mi North 4.6 mph - N/A   Clear
9:17 PM 48.2 °F - 28.4 °F 46% 30.05 in 10.0 mi North 3.5 mph - N/A   Clear
9:37 PM 48.2 °F - 28.4 °F 46% 30.06 in 10.0 mi Calm Calm - N/A   Clear
9:57 PM 48.2 °F - 28.4 °F 46% 30.07 in 10.0 mi Calm Calm - N/A   Clear
10:17 PM 46.4 °F - 30.2 °F 53% 30.07 in 10.0 mi Calm Calm - N/A   Clear
10:38 PM 44.6 °F 42.2 °F 32.0 °F 61% 30.08 in 10.0 mi North 4.6 mph - N/A   Clear
10:57 PM 44.6 °F 42.2 °F 30.2 °F 57% 30.08 in 10.0 mi NNE 4.6 mph - N/A   Clear
11:23 PM 42.8 °F 41.1 °F 32.0 °F 66% 30.08 in 10.0 mi NE 3.5 mph - N/A   Clear
11:38 PM 42.8 °F 40.1 °F 32.0 °F 66% 30.09 in 10.0 mi ENE 4.6 mph - N/A   Clear
11:59 PM 42.8 °F 38.0 °F 32.0 °F 66% 30.08 in 10.0 mi NE 8.1 mph - N/A   Clear